This is the latest recevied weather packets stored in our database for station/object KE5VT. If no packets are shown the sender has not sent any weather packets the latest 10 day(s).
| Time | Temp. | Humidity | Pressure | Rain* | Wind** | Luminosity | Snow |
|---|---|---|---|---|---|---|---|
| 1788036944 | 30° C | 66% | 1016.2 hPa | 0 mm | - | 120 W/m² | - |
| 1788036642 | 30° C | 67% | 1016.3 hPa | 0 mm | - | 127 W/m² | - |
| 1788036338 | 30.56° C | 65% | 1016.3 hPa | 0 mm | - | 171 W/m² | - |
| 1788036037 | 30° C | 65% | 1016.4 hPa | 0 mm | - | 178 W/m² | - |
| 1788035737 | 30° C | 66% | 1016.6 hPa | 0 mm | - | 151 W/m² | - |
| 1788035432 | 30.56° C | 67% | 1016.6 hPa | 0 mm | - | 154 W/m² | - |
| 1788035133 | 30.56° C | 65% | 1016.5 hPa | 0 mm | - | 232 W/m² | - |
| 1788034829 | 30° C | 66% | 1016.5 hPa | 0 mm | - | 170 W/m² | - |
| 1788034525 | 30° C | 65% | 1016.6 hPa | 0 mm | - | 184 W/m² | - |
| 1788034221 | 29.44° C | 66% | 1016.8 hPa | 0 mm | - | 106 W/m² | - |
| 1788033920 | 29.44° C | 67% | 1016.6 hPa | 0 mm | - | 121 W/m² | - |
| 1788033616 | 30° C | 69% | 1016.7 hPa | 0 mm | - | 174 W/m² | - |
| 1788033314 | 29.44° C | 72% | 1016.9 hPa | 0 mm | - | 236 W/m² | - |
| 1788033010 | 28.89° C | 75% | 1017 hPa | 0 mm | - | 174 W/m² | - |
| 1788032710 | 28.89° C | 74% | 1016.8 hPa | 0 mm | - | 164 W/m² | - |
| 1788032405 | 28.33° C | 75% | 1016.9 hPa | 0 mm | - | 128 W/m² | - |
| 1788032100 | 28.33° C | 74% | 1017 hPa | 0 mm | - | 98 W/m² | - |
| 1788031796 | 28.89° C | 72% | 1017.1 hPa | 0 mm | - | 99 W/m² | - |
| 1788031491 | 28.89° C | 74% | 1017.1 hPa | 0 mm | - | 109 W/m² | - |
| 1788031185 | 28.33° C | 72% | 1017.2 hPa | 0 mm | - | 77 W/m² | - |
| 1788030885 | 28.89° C | 73% | 1017.3 hPa | 0 mm | - | 71 W/m² | - |
| 1788030584 | 28.89° C | 73% | 1017.5 hPa | 0 mm | - | 66 W/m² | - |
| 1788030279 | 28.89° C | 73% | 1017.6 hPa | 0 mm | - | 72 W/m² | - |
| 1788029974 | 28.89° C | 73% | 1017.6 hPa | 0 mm | - | 58 W/m² | - |
| 1788029669 | 28.89° C | 73% | 1017.6 hPa | 0 mm | - | 60 W/m² | - |
* Rain latest hour (hover to see other rain measurements)
** Current wind speed in m/s (hover to see current wind gust speed)